Regional Weather Roundup
Issued by NWS

Home | Current Version | Previous Version | Text Only | Print | Product List | Glossary On
Versions: 1 2 3 4 5 6 7 8 9 10 11 12 13 14 15 16 17 18 19 20 21 22 23 24 25 26 27 28 29 30 31 32 33 34 35 36 37 38 39 40 41 42 43 44 45 46 47 48 49 50
000
ASUS46 KPQR 011510
RWROR

OREGON REGIONAL WEATHER ROUNDUP
NATIONAL WEATHER SERVICE PORTLAND OR
700 AM PST SUN FEB 01 2015

NOTE: "FAIR" INDICATES FEW OR NO CLOUDS BELOW 12,000 FEET WITH
NO SIGNIFICANT WEATHER AND/OR OBSTRUCTIONS TO VISIBILITY.

ORZ001>013-011600-
NORTHWEST OREGON


CITY           SKY/WX    TMP DP  RH WIND       PRES   REMARKS
ASTORIA        LGT RAIN  44  40  85 CALM      30.05R FOG
NEWPORT        CLOUDY    45  43  93 E9        30.09F
PORTLAND       LGT RAIN  40  37  89 SE10      30.12S WCI  33
VANCOUVER WA   LGT RAIN  40  35  83 SE5       30.12F
SCAPPOOSE      LGT RAIN  41  36  82 S7        30.11F
HILLSBORO      LGT RAIN  39  39 100 CALM      30.12S
AURORA         LGT RAIN  39  38  96 CALM      30.12F
MCMINNVILLE    LGT RAIN  40  38  93 N6        30.11F
SALEM          LGT RAIN  40  39  97 CALM      30.11F FOG
CORVALLIS      CLOUDY    43  37  81 S5        30.14R
EUGENE         LGT RAIN  40  39  97 NW6       30.15R FOG
$$

ORZ021-028-011600-
SOUTHWEST OREGON


CITY           SKY/WX    TMP DP  RH WIND       PRES   REMARKS
NORTH BEND     CLOUDY    50  48  93 SE8       30.12F
BROOKINGS      CLOUDY    52  45  77 CALM      30.13R
ROSEBURG       CLOUDY    46  42  86 NE3       30.13R
SEXTON SUMMIT  CLOUDY    47  29  49 S12       30.11S
MEDFORD        CLOUDY    37  34  89 W8        30.15F WCI  31
$$

ORZ014>016-041-011600-
COLUMBIA GORGE


CITY           SKY/WX    TMP DP  RH WIND       PRES   REMARKS
TROUTDALE      CLOUDY    41  34  76 E21       30.11S
THE DALLES     LGT RAIN  37  34  89 CALM      30.24F
$$

ORZ029>031-041-044-049-050-061>064-502-503-505>511-011600-
EASTERN OREGON


CITY           SKY/WX    TMP DP  RH WIND       PRES   REMARKS
REDMOND        FOG       31  31 100 CALM      30.12F VSB 1/2
BEND           CLOUDY    28  28 100 CALM      30.12F FOG
PRINEVILLE     CLOUDY    30  32 100 W5        30.13R WCI  25
KLAMATH FALLS  CLOUDY    29  24  82 SE6       30.17F WCI  23
LAKEVIEW       CLOUDY    25  21  86 W5        30.19F WCI  19
HERMISTON      CLOUDY    36  33  89 SW5       30.23F WCI  32
PENDLETON      FOG       33  32  96 SW6       30.18F VSB 1   WCI  28
JOHN DAY       CLOUDY    32  29  88 CALM      30.11S
MEACHAM        CLOUDY    30  27  88 CALM      30.08S
LA GRANDE      CLOUDY    30  23  74 CALM      30.12S
BAKER CITY     MOCLDY    28  26  92 N3        30.13F
BURNS          CLOUDY    30  26  85 W5        30.15S WCI  25
ROME             N/A     31  24  75 NW5       30.15R WCI  26
ONTARIO        CLOUDY    31  28  89 CALM      30.21S
$$



USA.gov is the U.S. government's official web portal to all federal, state and local government web resources and services.